Hourly Data Report for May 26, 2020

STE-ANNE-DE-BELLEVUE 1
QUEBEC
Current Station Operator: ECCC - MSC

45°25'38.000" N
73°55'45.000" W
39.00 m
702FHL8
71377
WVQ

Download Data

Hourly Data (May 2020)
Hourly Data Report for May 26, 2020
TIME
LST
Temp Definition
°C
Dew Point Definition
°C
Rel Hum Definition
%
Precip. Amount Definition
mm

Wind Dir Definition
10's deg

Wind Spd Definition
km/h
Visibility Definition
km
Stn Press Definition
kPa
Hmdx Definition


Wind Chill Definition


Weather Definition


00:00 15.8 14.8 94 0.0   0   101.39     LegendNANA
01:00 15.3 14.5 95 0.0   0   101.40     LegendNANA
02:00 14.6 14.0 96 0.0   0   101.39     LegendNANA
03:00 14.2 13.6 96 0.0   0   101.40     LegendNANA
04:00 14.0 13.5 97 0.0 0 1   101.45     LegendNANA
05:00 15.4 14.8 96 0.0 19 3   101.49     LegendNANA
06:00 17.4 15.1 86 0.0 14 7   101.51     LegendNANA
07:00 20.6 16.4 77 0.0 12 1   101.53 25   LegendNANA
08:00 23.1 17.8 72 0.0 16 5   101.51 29   LegendNANA
09:00 24.5 17.9 67 0.0 16 5   101.50 30   LegendNANA
10:00 26.2 17.4 58 0.0 17 8   101.47 32   LegendNANA
11:00 28.3 18.2 54 0.0 15 6   101.46 34   LegendNANA
12:00 30.2 17.9 48 0.0 22 18   101.40 36   LegendNANA
13:00 31.0 18.1 46 0.0 21 12   101.33 37   LegendNANA
14:00 31.9 18.6 45 0.0 24 17   101.27 38   LegendNANA
15:00 32.5 18.6 44 0.0 23 15   101.23 39   LegendNANA
16:00 32.1 18.3 44 0.0 23 12   101.19 38   LegendNANA
17:00 32.4 18.1 43 0.0 24 10   101.17 38   LegendNANA
18:00 31.7 16.1 39 0.0 26 11   101.17 36   LegendNANA
19:00 30.1 15.0 40 0.0 23 8   101.21 34   LegendNANA
20:00 25.7 15.9 55 0.0 20 5   101.25 30   LegendNANA
21:00 25.3 16.4 58 0.0 24 6   101.32 30   LegendNANA
22:00 25.0 16.3 59 0.0 24 9   101.32 30   LegendNANA
23:00 23.0 16.2 66 0.0 21 3   101.35 28   LegendNANA

Notes on Data Quality.

Legend

  • E = Estimated
  • M = Missing
  • NA = Not Available*
  • [empty] = Indicates an unobserved value
Date modified: